Вернуться в каталог

CZ-2D DEB

АктивенSSO
NORAD 38179·DEBRIS·🇨🇳 China

Запущен Nov 20, 2011 с Jiuquan Satellite Launch Center

Loading…

Ближайшие Пролёты (ближайшие 24 часа)

TLE

СвежийSource: Space-Track

Эпоха: Sep 12, 2026, 07:14 UTC

1 38179U 11068G   26255.30158831  .00000477  00000-0  21228-3 0  9999
2 38179  98.8283 279.1082 0126891 203.0625 218.9237 14.23282737765382

Отслеживайте CZ-2D DEB в реальном времени с AllMySat

Download on the App Store